| time (UTC) | temp C | wind direction | speed KPH | gust KPH | rain 1hr cm | rain 24hr cm | rain mn cm | humidity % | barometer mb |
| 20260508230627 | 12 | 43 | 0.0 | 1.6 | 0.00 | 0.00 | 0.00 | 66 | 1030.0 |
| 20260508225727 | 12 | 43 | 0.0 | 1.6 | 0.00 | 0.00 | 0.00 | 65 | 1029.9 |
| 20260508223927 | 11 | 42 | 0.0 | 1.6 | 0.00 | 0.00 | 0.00 | 65 | 1029.8 |
| 20260508222126 | 10 | 42 | 0.0 | 1.6 | 0.00 | 0.00 | 0.00 | 65 | 1029.7 |
| 20260508221226 | 10 | 42 | 0.0 | 1.6 | 0.00 | 0.00 | 0.00 | 65 | 1029.6 |
| 20260508220327 | 10 | 42 | 0.0 | 4.8 | 0.00 | 0.00 | 0.00 | 65 | 1029.6 |
| 20260508215427 | 9 | 259 | 1.6 | 4.8 | 0.00 | 0.00 | 0.00 | 65 | 1029.6 |
| 20260508214526 | 9 | 328 | 1.6 | 3.2 | 0.00 | 0.00 | 0.00 | 65 | 1029.5 |
| 20260508213627 | 9 | 341 | 1.6 | 3.2 | 0.00 | 0.00 | 0.00 | 65 | 1029.4 |
| 20260508212727 | 9 | 0 | 0.0 | 0.0 | 0.00 | 0.00 | 0.00 | 65 | 1029.3 |
| 20260508211827 | 9 | 0 | 0.0 | 0.0 | 0.00 | 0.00 | 0.00 | 65 | 1029.1 |
| 20260508210026 | 9 | 167 | 1.6 | 4.8 | 0.00 | 0.00 | 0.00 | 65 | 1029.2 |
| 20260508205126 | 9 | 167 | 1.6 | 4.8 | 0.00 | 0.00 | 0.00 | 65 | 1029.2 |
| 20260508203326 | 9 | 166 | 0.0 | 1.6 | 0.00 | 0.00 | 0.00 | 65 | 1029.0 |
| 20260508202426 | 9 | 0 | 0.0 | 0.0 | 0.00 | 0.00 | 0.00 | 65 | 1028.9 |
| 20260508201526 | 9 | 166 | 0.0 | 1.6 | 0.00 | 0.00 | 0.00 | 65 | 1028.8 |
| 20260508195727 | 9 | 166 | 1.6 | 1.6 | 0.00 | 0.00 | 0.00 | 65 | 1028.7 |
| 20260508194826 | 9 | 166 | 0.0 | 1.6 | 0.00 | 0.00 | 0.00 | 65 | 1028.6 |
| 20260508193927 | 9 | 166 | 0.0 | 1.6 | 0.00 | 0.00 | 0.00 | 65 | 1028.6 |
| 20260508193026 | 10 | 166 | 0.0 | 1.6 | 0.00 | 0.00 | 0.00 | 65 | 1028.5 |
| 20260508192126 | 10 | 0 | 0.0 | 0.0 | 0.00 | 0.00 | 0.00 | 65 | 1028.5 |
| 20260508191226 | 10 | 166 | 0.0 | 1.6 | 0.00 | 0.00 | 0.00 | 65 | 1028.4 |
| 20260508190327 | 10 | 167 | 0.0 | 1.6 | 0.00 | 0.00 | 0.00 | 64 | 1028.4 |
| 20260508184526 | 10 | 166 | 0.0 | 1.6 | 0.00 | 0.00 | 0.00 | 64 | 1028.4 |
| 20260508183626 | 10 | 167 | 0.0 | 4.8 | 0.00 | 0.00 | 0.00 | 64 | 1028.3 |
| 20260508182726 | 10 | 167 | 1.6 | 6.4 | 0.00 | 0.00 | 0.00 | 64 | 1028.5 |
| 20260508180926 | 10 | 166 | 1.6 | 4.8 | 0.00 | 0.00 | 0.00 | 64 | 1028.6 |
| 20260508180026 | 10 | 166 | 0.0 | 4.8 | 0.00 | 0.00 | 0.00 | 64 | 1028.7 |
| 20260508175126 | 10 | 166 | 0.0 | 1.6 | 0.00 | 0.00 | 0.00 | 64 | 1028.7 |
| 20260508174226 | 10 | 166 | 0.0 | 1.6 | 0.00 | 0.00 | 0.00 | 64 | 1028.7 |
| 20260508173326 | 10 | 166 | 0.0 | 1.6 | 0.00 | 0.00 | 0.00 | 64 | 1028.7 |
| 20260508172426 | 10 | 0 | 0.0 | 0.0 | 0.00 | 0.00 | 0.00 | 64 | 1028.8 |
| 20260508171526 | 10 | 0 | 0.0 | 0.0 | 0.00 | 0.00 | 0.00 | 64 | 1028.8 |
| 20260508170626 | 10 | 0 | 0.0 | 0.0 | 0.00 | 0.00 | 0.00 | 64 | 1028.8 |
| 20260508165726 | 10 | 166 | 0.0 | 1.6 | 0.00 | 0.00 | 0.00 | 64 | 1028.8 |
| 20260508164826 | 10 | 167 | 1.6 | 4.8 | 0.00 | 0.00 | 0.00 | 64 | 1028.7 |
| 20260508163026 | 10 | 166 | 0.0 | 1.6 | 0.00 | 0.00 | 0.00 | 64 | 1028.7 |
| 20260508162126 | 11 | 166 | 0.0 | 1.6 | 0.00 | 0.00 | 0.00 | 64 | 1028.6 |
| 20260508161227 | 11 | 166 | 0.0 | 1.6 | 0.00 | 0.00 | 0.00 | 64 | 1028.6 |
| 20260508160326 | 11 | 198 | 0.0 | 1.6 | 0.00 | 0.00 | 0.00 | 64 | 1028.7 |
| 20260508155426 | 11 | 240 | 0.0 | 3.2 | 0.00 | 0.00 | 0.00 | 64 | 1028.8 |
| 20260508154525 | 11 | 241 | 0.0 | 1.6 | 0.00 | 0.00 | 0.00 | 64 | 1028.8 |
| 20260508151826 | 11 | 0 | 0.0 | 0.0 | 0.00 | 0.00 | 0.00 | 63 | 1028.9 |
| 20260508150925 | 11 | 0 | 0.0 | 0.0 | 0.00 | 0.00 | 0.00 | 63 | 1028.9 |
| 20260508143325 | 11 | 235 | 1.6 | 6.4 | 0.00 | 0.00 | 0.00 | 63 | 1029.0 |
| 20260508142425 | 12 | 244 | 1.6 | 6.4 | 0.00 | 0.00 | 0.00 | 63 | 1029.0 |
| 20260508141525 | 12 | 245 | 1.6 | 3.2 | 0.00 | 0.00 | 0.00 | 63 | 1029.1 |
| 20260508140626 | 12 | 228 | 1.6 | 3.2 | 0.00 | 0.00 | 0.00 | 63 | 1029.1 |
| 20260508135726 | 12 | 229 | 0.0 | 3.2 | 0.00 | 0.00 | 0.00 | 63 | 1029.1 |
| 20260508134826 | 12 | 228 | 1.6 | 3.2 | 0.00 | 0.00 | 0.00 | 63 | 1029.2 |
| 20260508133925 | 12 | 232 | 3.2 | 4.8 | 0.00 | 0.00 | 0.00 | 63 | 1029.2 |
| 20260508133027 | 12 | 217 | 4.8 | 9.7 | 0.00 | 0.00 | 0.00 | 63 | 1029.3 |
| 20260508132126 | 12 | 214 | 4.8 | 11.3 | 0.00 | 0.00 | 0.00 | 63 | 1029.4 |
| 20260508130325 | 12 | 198 | 3.2 | 8.0 | 0.00 | 0.00 | 0.00 | 62 | 1029.4 |
| 20260508125425 | 12 | 198 | 4.8 | 6.4 | 0.00 | 0.00 | 0.00 | 62 | 1029.5 |
| 20260508124525 | 12 | 179 | 3.2 | 9.7 | 0.00 | 0.00 | 0.00 | 62 | 1029.6 |
| 20260508123625 | 12 | 184 | 1.6 | 4.8 | 0.00 | 0.00 | 0.00 | 62 | 1029.6 |
| 20260508122725 | 12 | 184 | 1.6 | 4.8 | 0.00 | 0.00 | 0.00 | 62 | 1029.6 |
| 20260508121825 | 12 | 183 | 1.6 | 6.4 | 0.00 | 0.00 | 0.00 | 62 | 1029.6 |
| 20260508120925 | 13 | 185 | 1.6 | 6.4 | 0.00 | 0.00 | 0.00 | 62 | 1029.6 |
| 20260508120025 | 13 | 181 | 1.6 | 8.0 | 0.00 | 0.00 | 0.00 | 62 | 1029.6 |
| 20260508115125 | 13 | 194 | 1.6 | 8.0 | 0.00 | 0.00 | 0.00 | 62 | 1029.6 |
| 20260508114225 | 13 | 173 | 3.2 | 9.7 | 0.00 | 0.00 | 0.00 | 62 | 1029.7 |
| 20260508113325 | 13 | 172 | 1.6 | 6.4 | 0.00 | 0.00 | 0.00 | 62 | 1029.6 |
| 20260508111526 | 13 | 172 | 1.6 | 4.8 | 0.00 | 0.00 | 0.00 | 62 | 1029.5 |
| 20260508110625 | 13 | 167 | 3.2 | 8.0 | 0.00 | 0.00 | 0.00 | 62 | 1029.5 |
| 20260508105725 | 13 | 175 | 3.2 | 9.7 | 0.00 | 0.00 | 0.00 | 62 | 1029.4 |
| 20260508104825 | 13 | 188 | 4.8 | 12.9 | 0.00 | 0.00 | 0.00 | 62 | 1029.4 |
| 20260508103925 | 13 | 181 | 4.8 | 14.5 | 0.00 | 0.00 | 0.00 | 62 | 1029.3 |
| 20260508102125 | 13 | 187 | 4.8 | 9.7 | 0.00 | 0.00 | 0.00 | 62 | 1029.4 |
| 20260508094525 | 14 | 188 | 4.8 | 11.3 | 0.00 | 0.00 | 0.00 | 62 | 1029.3 |
| 20260508093625 | 14 | 185 | 3.2 | 9.7 | 0.00 | 0.00 | 0.00 | 62 | 1029.2 |
| 20260508092724 | 14 | 189 | 4.8 | 11.3 | 0.00 | 0.00 | 0.00 | 62 | 1029.2 |
| 20260508091824 | 14 | 191 | 4.8 | 12.9 | 0.00 | 0.00 | 0.00 | 62 | 1029.1 |
| 20260508090925 | 14 | 202 | 4.8 | 11.3 | 0.00 | 0.00 | 0.00 | 62 | 1029.1 |
| 20260508090026 | 15 | 201 | 6.4 | 12.9 | 0.00 | 0.00 | 0.00 | 63 | 1029.1 |
| 20260508085125 | 15 | 207 | 6.4 | 16.1 | 0.00 | 0.00 | 0.00 | 63 | 1029.0 |
| 20260508084224 | 15 | 217 | 8.0 | 17.7 | 0.00 | 0.00 | 0.00 | 63 | 1029.0 |
| 20260508083324 | 15 | 212 | 9.7 | 19.3 | 0.00 | 0.00 | 0.00 | 63 | 1028.9 |
| 20260508080625 | 15 | 229 | 9.7 | 20.9 | 0.00 | 0.00 | 0.00 | 62 | 1028.7 |
| 20260508075725 | 15 | 231 | 9.7 | 24.1 | 0.00 | 0.00 | 0.00 | 62 | 1028.6 |
| 20260508073925 | 15 | 223 | 11.3 | 20.9 | 0.00 | 0.00 | 0.00 | 61 | 1028.6 |
| 20260508072125 | 16 | 222 | 8.0 | 16.1 | 0.00 | 0.00 | 0.00 | 61 | 1028.5 |
| 20260508071224 | 16 | 221 | 11.3 | 22.5 | 0.00 | 0.00 | 0.00 | 60 | 1028.5 |
| 20260508065424 | 16 | 222 | 11.3 | 17.7 | 0.00 | 0.00 | 0.00 | 60 | 1028.4 |
| 20260508064524 | 16 | 225 | 11.3 | 20.9 | 0.00 | 0.00 | 0.00 | 60 | 1028.5 |
| 20260508063624 | 16 | 222 | 11.3 | 22.5 | 0.00 | 0.00 | 0.00 | 60 | 1028.5 |
| 20260508061824 | 16 | 219 | 12.9 | 20.9 | 0.00 | 0.00 | 0.00 | 60 | 1028.5 |
| 20260508060924 | 16 | 216 | 12.9 | 27.4 | 0.00 | 0.00 | 0.00 | 58 | 1028.5 |
| 20260508060026 | 17 | 231 | 14.5 | 27.4 | 0.00 | 0.00 | 0.00 | 57 | 1028.5 |
| 20260508053325 | 17 | 234 | 14.5 | 24.1 | 0.00 | 0.00 | 0.00 | 57 | 1028.5 |
| 20260508052424 | 17 | 234 | 14.5 | 27.4 | 0.00 | 0.00 | 0.00 | 56 | 1028.4 |
| 20260508051524 | 17 | 223 | 16.1 | 27.4 | 0.00 | 0.00 | 0.00 | 55 | 1028.5 |
| 20260508050624 | 18 | 240 | 12.9 | 29.0 | 0.00 | 0.00 | 0.00 | 55 | 1028.5 |
| 20260508045724 | 17 | 227 | 14.5 | 22.5 | 0.00 | 0.00 | 0.00 | 55 | 1028.6 |
| 20260508044824 | 17 | 215 | 12.9 | 24.1 | 0.00 | 0.00 | 0.00 | 53 | 1028.6 |
| 20260508043024 | 18 | 227 | 11.3 | 22.5 | 0.00 | 0.00 | 0.00 | 55 | 1028.7 |
| 20260508042124 | 18 | 255 | 9.7 | 20.9 | 0.00 | 0.00 | 0.00 | 58 | 1028.7 |
| 20260508040325 | 17 | 220 | 12.9 | 22.5 | 0.00 | 0.00 | 0.00 | 58 | 1028.9 |
| 20260508035424 | 18 | 213 | 11.3 | 20.9 | 0.00 | 0.00 | 0.00 | 57 | 1029.0 |
| 20260508034523 | 17 | 220 | 11.3 | 20.9 | 0.00 | 0.00 | 0.00 | 60 | 1029.1 |
| 20260508032724 | 16 | 218 | 12.9 | 22.5 | 0.00 | 0.00 | 0.00 | 60 | 1029.3 |
| 20260508030924 | 16 | 251 | 12.9 | 24.1 | 0.00 | 0.00 | 0.00 | 60 | 1029.4 |
| 20260508025124 | 17 | 234 | 9.7 | 22.5 | 0.00 | 0.00 | 0.00 | 62 | 1029.7 |
| 20260508024223 | 16 | 232 | 9.7 | 25.7 | 0.00 | 0.00 | 0.00 | 62 | 1029.8 |
| 20260508023324 | 16 | 244 | 11.3 | 22.5 | 0.00 | 0.00 | 0.00 | 63 | 1030.0 |
| 20260508021524 | 16 | 243 | 9.7 | 20.9 | 0.00 | 0.00 | 0.00 | 61 | 1030.2 |
| 20260508020624 | 16 | 231 | 8.0 | 16.1 | 0.00 | 0.00 | 0.00 | 61 | 1030.2 |
| 20260508015723 | 16 | 234 | 11.3 | 25.7 | 0.00 | 0.00 | 0.00 | 62 | 1030.4 |
| 20260508013024 | 16 | 225 | 11.3 | 29.0 | 0.00 | 0.00 | 0.00 | 60 | 1030.7 |
| 20260508012123 | 17 | 216 | 8.0 | 16.1 | 0.00 | 0.00 | 0.00 | 63 | 1030.7 |
| 20260508011223 | 15 | 236 | 8.0 | 19.3 | 0.00 | 0.00 | 0.00 | 65 | 1030.9 |
| 20260508010323 | 15 | 220 | 9.7 | 17.7 | 0.00 | 0.00 | 0.00 | 64 | 1031.0 |
| 20260508005423 | 15 | 199 | 4.8 | 14.5 | 0.00 | 0.00 | 0.00 | 64 | 1030.8 |
| 20260508004523 | 15 | 197 | 4.8 | 9.7 | 0.00 | 0.00 | 0.00 | 64 | 1030.8 |
| 20260508003624 | 15 | 192 | 6.4 | 12.9 | 0.00 | 0.00 | 0.00 | 65 | 1030.8 |
| 20260508002723 | 14 | 192 | 8.0 | 19.3 | 0.00 | 0.00 | 0.00 | 65 | 1030.7 |
| 20260508001824 | 14 | 203 | 6.4 | 12.9 | 0.00 | 0.00 | 0.00 | 64 | 1030.7 |
| 20260508000923 | 14 | 173 | 8.0 | 16.1 | 0.00 | 0.00 | 0.00 | 63 | 1030.7 |
| 20260508000025 | 15 | 169 | 6.4 | 16.1 | 0.00 | 0.00 | 0.00 | 62 | 1030.7 |
| 20260507235123 | 14 | 169 | 6.4 | 14.5 | 0.00 | 0.00 | 0.00 | 62 | 1030.6 |
| 20260507233323 | 15 | 210 | 6.4 | 16.1 | 0.00 | 0.00 | 0.00 | 61 | 1030.5 |
| 20260507232423 | 14 | 227 | 11.3 | 22.5 | 0.00 | 0.00 | 0.00 | 60 | 1030.5 |
| 20260507231523 | 14 | 226 | 12.9 | 27.4 | 0.00 | 0.00 | 0.00 | 60 | 1030.4 |